Location: Ergnies
(50.0854°N, 2.0375°E)
Time: 15:30:43
(UTC+00:00)

Lacrosse 5 rocket - Visible Passes

Search period start: 11 April 2026 00:00
Search period end: 21 April 2026 00:00
Orbit: 391 x 478 km, 57.0° (Epoch: 11 April)

Date Brightness Start Highest point End Pass type
(mag) Time Alt. Az. Time Alt. Az. Time Alt. Az.
11 Apr 1.3 19:55:59 10° SSW 19:58:55 33° SE 20:00:41 18° E visible
11 Apr 2.7 21:32:25 10° W 21:34:04 25° W 21:34:04 25° W visible
12 Apr 1.9 19:14:13 10° S 19:16:45 22° SE 19:19:18 10° E visible
12 Apr 1.2 20:49:59 10° WSW 20:53:08 59° NNW 20:54:38 27° NE visible
12 Apr 3.8 22:27:34 10° WNW 22:27:59 12° WNW 22:27:59 12° WNW visible
13 Apr 0.6 20:07:37 10° WSW 20:10:49 85° NW 20:14:01 10° ENE visible
13 Apr 2.7 21:45:01 10° WNW 21:47:48 26° NNW 21:47:58 26° N visible
14 Apr 0.6 19:25:20 10° SW 19:28:31 64° SE 19:31:41 10° ENE visible
14 Apr 2.5 21:02:26 10° W 21:05:19 31° NNW 21:07:35 14° NE visible
14 Apr 3.7 22:39:58 10° NW 22:40:53 15° NW 22:40:53 15° NW visible
15 Apr 2.1 20:19:50 10° W 20:22:52 38° NNW 20:25:53 10° NE visible
15 Apr 3.0 21:57:29 10° NW 22:00:06 23° N 22:00:13 23° N visible
16 Apr 1.6 19:37:16 10° WSW 19:40:24 50° NNW 19:43:31 10° NE visible
16 Apr 2.9 21:14:53 10° WNW 21:17:32 23° N 21:19:23 15° NE visible
16 Apr 3.7 22:51:57 10° NW 22:52:40 15° NW 22:52:40 15° NW visible
17 Apr 2.8 20:32:14 10° WNW 20:34:58 25° N 20:37:41 10° NE visible
17 Apr 2.9 22:09:30 10° NW 22:11:43 25° N 22:11:43 25° N visible
18 Apr 2.6 19:49:31 10° WNW 19:52:23 28° NNW 19:55:12 10° NE visible
18 Apr 2.7 21:27:00 10° NW 21:29:41 24° N 21:30:42 20° NE visible
18 Apr 3.8 23:03:37 10° NW 23:03:57 12° NW 23:03:57 12° NW visible
19 Apr 2.9 20:44:24 10° NW 20:47:02 23° N 20:49:35 10° ENE visible
19 Apr 2.9 22:21:10 10° NW 22:22:51 26° NNW 22:22:51 26° NNW visible
20 Apr 2.9 20:01:44 10° WNW 20:04:22 23° N 20:06:59 10° NE visible
20 Apr 2.1 21:38:41 10° NW 21:41:38 33° NNE 21:41:42 33° NNE visible
